CW8212 Weather Reports


time (UTC)temp
C
wind
direction
speed
KPH
gust
KPH
rain 1hr
cm
rain 24hr
cm
rain mn
cm
humidity
%
barometer
mb
20260507030045 17 286 1.6 9.7 0.10 0.25 0.25 89 1009.3
20260507024554 17 281 0.0 6.4 0.13 0.25 0.25 89 1009.0
20260507023045 17 325 1.6 16.1 0.13 0.25 0.25 88 1009.3
20260507021545 18 294 0.0 3.2 0.13 0.25 0.25 88 1009.3
20260507014552 18 315 1.6 6.4 0.00 0.13 0.13 86 1009.3
20260507013047 18 223 0.0 3.2 0.00 0.13 0.13 86 1009.0
20260507011541 18 229 0.0 3.2 0.00 0.13 0.13 86 1008.9
20260507010040 18 221 0.0 3.2 0.00 0.13 0.13 85 1008.7
20260507004543 18 211 0.0 4.8 0.00 0.13 0.13 85 1008.9
20260507003039 18 229 0.0 4.8 0.00 0.13 0.13 84 1008.5
20260507001539 18 233 0.0 4.8 0.00 0.13 0.13 84 1008.2
20260507000038 18 181 0.0 4.8 0.00 0.13 0.13 84 1008.3
20260506234540 18 175 0.0 4.8 0.00 0.13 0.13 83 1008.1
20260506233038 18 221 0.0 8.0 0.00 0.13 0.13 83 1008.2
20260506231548 18 221 1.6 4.8 0.00 0.13 0.13 83 1007.9
20260506230050 18 244 1.6 8.0 0.00 0.13 0.13 84 1008.0
20260506224538 18 232 0.0 8.0 0.00 0.13 0.13 84 1007.8
20260506223048 18 237 0.0 4.8 0.00 0.13 0.13 84 1008.0
20260506221535 19 257 0.0 9.7 0.00 0.13 0.13 84 1007.8
20260506220036 19 273 0.0 6.4 0.00 0.13 0.13 84 1007.9
20260506214534 18 202 0.0 8.0 0.00 0.13 0.13 85 1007.7
20260506213042 18 167 1.6 9.7 0.00 0.13 0.13 86 1007.7
20260506211546 18 285 0.0 6.4 0.00 0.13 0.13 87 1007.6
20260506210035 18 197 1.6 8.0 0.00 0.13 0.13 87 1007.4
20260506204536 18 338 1.6 8.0 0.00 0.13 0.13 88 1007.4
20260506203033 17 329 1.6 8.0 0.00 0.13 0.13 89 1007.3
20260506201535 17 153 0.0 6.4 0.00 0.13 0.13 90 1007.4
20260506200030 17 174 3.2 16.1 0.00 0.13 0.13 91 1007.5
20260506194531 17 271 3.2 8.0 0.00 0.13 0.13 91 1007.5
20260506193027 16 245 0.0 6.4 0.00 0.13 0.13 91 1007.7
20260506191526 16 142 3.2 11.3 0.00 0.13 0.13 92 1008.0
20260506190023 16 229 3.2 12.9 0.00 0.13 0.13 92 1008.1
20260506184523 16 218 1.6 8.0 0.00 0.13 0.13 92 1008.2
20260506183030 16 265 3.2 14.5 0.00 0.13 0.13 92 1008.2
20260506181521 16 256 3.2 9.7 0.00 0.13 0.13 92 1008.4
20260506180020 16 243 1.6 14.5 0.00 0.13 0.13 92 1008.3
20260506174519 16 223 1.6 6.4 0.00 0.13 0.13 92 1008.4
20260506173019 16 211 0.0 6.4 0.00 0.13 0.13 92 1008.5
20260506171618 16 231 3.2 8.0 0.03 0.13 0.13 91 1008.6
20260506170019 16 227 3.2 9.7 0.08 0.13 0.13 91 1008.6
20260506164516 16 261 3.2 16.1 0.10 0.13 0.13 91 1008.5
20260506163014 16 193 0.0 16.1 0.10 0.13 0.13 90 1008.7
20260506161511 16 227 3.2 8.0 0.10 0.10 0.10 89 1009.0
20260506160009 16 212 1.6 8.0 0.05 0.05 0.05 87 1009.6
20260506154506 16 221 1.6 6.4 0.03 0.03 0.03 86 1010.0
20260506153004 17 217 1.6 4.8 0.03 0.03 0.03 84 1009.9
20260506151505 17 254 1.6 9.7 0.00 0.00 0.00 83 1009.8
20260506150004 17 214 0.0 6.4 0.00 0.00 0.00 81 1009.8
20260506144502 18 203 1.6 8.0 0.00 0.00 0.00 79 1009.5
20260506143001 18 224 4.8 12.9 0.00 0.00 0.00 76 1009.9
20260506141501 18 154 3.2 12.9 0.00 0.00 0.00 74 1009.9
20260506140106 18 236 1.6 8.0 0.00 0.00 0.00 74 1009.7
20260506134559 18 211 3.2 11.3 0.00 0.00 0.00 75 1009.6
20260506133058 18 227 1.6 9.7 0.00 0.00 0.00 75 1009.7
20260506131559 18 110 4.8 12.9 0.00 0.00 0.00 75 1009.6
20260506124557 18 220 4.8 14.5 0.00 0.00 0.00 77 1009.8
20260506123057 18 129 3.2 11.3 0.00 0.00 0.00 78 1009.7
20260506121558 17 105 3.2 14.5 0.00 0.00 0.00 79 1009.6
20260506120055 17 223 3.2 11.3 0.00 0.00 0.00 80 1009.4
20260506114555 17 219 0.0 8.0 0.00 0.00 0.00 80 1009.4
20260506113054 17 219 1.6 8.0 0.00 0.00 0.00 80 1009.4
20260506111552 17 237 1.6 14.5 0.00 0.00 0.00 81 1009.4
20260506110051 17 228 1.6 12.9 0.00 0.00 0.00 81 1009.3
20260506104549 17 214 1.6 8.0 0.00 0.00 0.00 81 1009.3
20260506103053 17 222 1.6 8.0 0.00 0.00 0.00 81 1009.3
20260506101546 17 161 3.2 9.7 0.00 0.00 0.00 80 1009.3
20260506100043 17 227 1.6 4.8 0.00 0.00 0.00 80 1009.3
20260506094543 17 221 1.6 6.4 0.00 0.00 0.00 80 1009.3
20260506093040 17 237 1.6 17.7 0.00 0.00 0.00 79 1009.4
20260506091539 17 231 1.6 8.0 0.00 0.00 0.00 79 1009.3
20260506090046 17 88 1.6 6.4 0.00 0.00 0.00 79 1009.4
20260506084543 18 213 0.0 6.4 0.00 0.00 0.00 78 1009.6
20260506083035 18 191 1.6 4.8 0.00 0.00 0.00 78 1009.5
20260506081538 18 203 1.6 8.0 0.00 0.00 0.00 77 1009.5
20260506073029 18 144 1.6 6.4 0.00 0.00 0.00 76 1009.7
20260506071528 18 178 1.6 8.0 0.00 0.00 0.00 75 1009.8
20260506061542 18 217 1.6 11.3 0.00 0.00 0.00 74 1010.0
20260506044520 19 222 1.6 6.4 0.00 0.00 0.00 69 1010.7
20260506043028 19 216 1.6 6.4 0.00 0.00 0.00 68 1010.7
20260506041512 19 171 1.6 4.8 0.00 0.00 0.00 68 1010.6
20260506040010 19 190 1.6 6.4 0.00 0.00 0.00 67 1010.8
20260506034509 19 215 0.0 6.4 0.00 0.00 0.00 66 1010.6
20260506033015 20 227 1.6 6.4 0.00 0.00 0.00 66 1010.5
20260506031509 20 215 1.6 4.8 0.00 0.00 0.00 64 1010.5